パンスターズ彗星

C/2022 JK5 ( PanSTARRS )

English version
Home page
Updated on September 2, 2023

---------------------------------------------------------------------

・ プロフィール

発見日 2022年5月9日
発見光度 21.0等
発見者 Pan-STARRS 2 telescope (Haleakala)

・ 写真集

・ 軌道要素

Epoch 2023 Feb. 25.0 TT = JDT 2460000.5
T 2023 Apr. 28.80738 TT                                 Rudenko
q   2.6869512            (2000.0)            P               Q
z  +0.0231588      Peri.  247.15585     +0.56507558     +0.78629054
 +/-0.0000158      Node    59.65269     -0.61013382     +0.60212595
e   0.9377735      Incl.   16.83088     -0.55536142     +0.13853353
>From 211 observations 2022 May 9-2023 July 5, mean residual 0".3.

・ 星図

・ 光度変化

        H = 14.5  G = 0.15                       [   ,-85]  (              〜2023年 2月 2日)
        m1 = -9.0 + 5 logΔ + 50 log r(t - 120)  [-85,   ]  (2023年 2月 2日〜              )

---------------------------------------------------------------------

軌道要素はM.P.E.C. 2023-N16に掲載されたものです。
星図はステラナビゲータ Ver.11 (アストロアーツ) で作成したものです。
光度グラフはComet for Windowsで作成したものです。

---------------------------------------------------------------------

Copyright(C) Seiichi Yoshida (comet@aerith.net). All rights reserved.